Flag for Canada Weather past 2 weeks in North Bay, Ontario, Canada

Now
57 °F

Mostly cloudy.


Feels Like: 56 °F
Forecast: 51 / 65 °F
Wind: 6 mph from Northwest

Location: North Bay

Current Time: Sep 23, 2014 at 3:04:40 PM

Latest Report: Sep 23, 2014 at 2:00 PM


Visibility: 15 mi

Pressure: 30.28 "Hg

Humidity: 82%

Dew point: 52 °F

Location of North BayLocation

Historic Weather in North Bay — Graph

°F

North Bay temperature yesterday

Maximum temperature yesterday: 52 °F (at 5:00 PM)
Minimum temperature yesterday: 39 °F (at 5:00 AM)
Average temperature yesterday: 45 °F

Past Weeks' High & Low Weather Summary

 TemperatureHumidityPressure
High73 °F (Sep 8, 3:00 PM)100% (Sep 10, 2:00 AM)30.38 "Hg (Sep 10, 2:00 AM)
Low30 °F (Sep 19, 5:00 AM)44% (Sep 8, 5:00 PM)29.35 "Hg (Sep 11, 4:00 AM)
Average50 °F85%30.04 "Hg
* Reported Sep 8 1:00 PM — Sep 23 1:00 PM, North Bay, Weather by CustomWeather, © 2014

Note: Actual official high and low records may vary slightly from our data, if they occured in-between our weather recording intervals... More about our weather records

Advertising

North Bay weather history for previous 24 hours

 ConditionsComfort  
Time TempWeatherWind HumidityBarometerVisibility
1:00 PM
Sep 23
57 °FMostly cloudy.3 mph88%30.27 "Hg12 mi
12:00 PM55 °FLow clouds.7 mph94%30.25 "Hg12 mi
11:00 AM54 °FLow clouds.6 mph100%30.23 "Hg10 mi
10:00 AM54 °FLow clouds.9 mph94%30.21 "Hg12 mi
9:00 AM54 °FLight rain. Low clouds.7 mph94%30.19 "Hg12 mi
8:00 AM54 °FLow clouds.9 mph94%30.17 "Hg12 mi
7:00 AM52 °FLow clouds.9 mph100%30.15 "Hg10 mi
6:00 AM52 °FOvercast.7 mph100%30.14 "Hg9 mi
5:00 AM52 °FOvercast.6 mph94%30.12 "Hg9 mi
4:53 AM52 °FOvercast.7 mph94%30.12 "Hg9 mi
4:00 AM52 °FMostly cloudy.7 mph94%30.11 "Hg9 mi
3:00 AM50 °FLight rain. Overcast.8 mph100%30.10 "Hg9 mi
2:46 AM50 °FLight rain. Overcast.8 mph100%30.11 "Hg9 mi
2:00 AM50 °FLight rain. Fog.8 mph94%30.11 "Hg3 mi
1:57 AM50 °FLight rain. Fog.7 mph94%30.11 "Hg3 mi
1:00 AM50 °FOvercast.7 mph94%30.11 "Hg9 mi
12:00 AM48 °FLight rain. Mostly cloudy.6 mph94%30.11 "Hg9 mi
11:53 PM
Sep 22
48 °FLight rain. Mostly cloudy.7 mph94%30.11 "Hg9 mi
11:00 PM48 °FOvercast.7 mph94%30.10 "Hg9 mi
10:00 PM48 °FOvercast.8 mph87%30.09 "Hg15 mi
9:00 PM48 °FMostly cloudy.10 mph82%30.08 "Hg15 mi
8:00 PM48 °FMostly cloudy.14 mph82%30.07 "Hg15 mi
7:00 PM46 °FPartly sunny.7 mph76%30.06 "Hg15 mi
6:00 PM50 °FPartly sunny.9 mph67%30.06 "Hg15 mi
5:00 PM52 °FScattered clouds.13 mph62%30.04 "Hg15 mi
4:00 PM50 °FBroken clouds.12 mph67%30.04 "Hg15 mi
3:00 PM50 °FPartly sunny.10 mph62%30.02 "Hg15 mi
Weather by CustomWeather, © 2014

See weather overviewHow to use our weather pages